Tracking 19846 objects as of 19-Sep-2019
HD Live streaming from Space Station
objects crossing your sky now

SL-12 R/B(AUX MOTOR)

Track SL-12 R/B(AUX MOTOR) now!
10-day predictions


NORAD ID: 16446
Int'l Code: 1985-118L
Perigee: 492.2 km
Apogee: 18,226.9 km
Inclination: 64.9 °
Period: 327.2 minutes
Semi major axis: 15730 km
RCS: 0.6158 m2 (medium)
Launch date: December 24, 1985
Source: Commonwealth of Independent States (former USSR) (CIS)
Launch site: TYURATAM MISSILE AND SPACE COMPLEX (TTMTR)

Note: This is a ROCKET BODY
aabbcc
Your satellite tracking list
Your tracking list is empty




NASA's NSSDC Master Catalog

Two Line Element Set (TLE):
1 16446U 85118L   19261.37037172  .00000072  00000-0  58732-4 0  9991
2 16446  64.9260 180.3535 5637015 135.6494 286.6667  4.40035021529527
Source of the keplerian elements: AFSPC